This demonstration page uses our WeatherBlox Daily Observations layout. Learn more.

Left ArrowRight Arrow

39.01783, -85.05884

Hourly Observations for December 28, 2016

Temp ( °F °C ) Dew Point ( °F °C ) Humidity (%) Winds ( mph kmh ) Pressure ( in mb ) Visibility ( mi km ) Precip ( " mm )
12:52 am 00:52 Clear 31 -0.6 24 -4.4 76 76 N N/A 30.22 1023 10 16 N/A
1:52 am 01:52 Clear 30 -1.1 24 -4.4 79 79 SW 6 9 30.22 1023 10 16 N/A
2:52 am 02:52 Clear 28 -2.2 23 -5 81 81 WSW 5 7 30.23 1024 10 16 N/A
3:52 am 03:52 Clear 29 -1.7 24 -4.4 82 82 SW 5 7 30.23 1024 10 16 N/A
4:52 am 04:52 Clear 27 -2.8 23 -5 85 85 N N/A 30.24 1024 10 16 N/A
5:52 am 05:52 Clear 26 -3.3 24 -4.4 92 92 N N/A 30.24 1024 10 16 N/A
6:52 am 06:52 Clear 25 -3.9 24 -4.4 96 96 SE 3 6 30.25 1024 10 16 N/A
7:52 am 07:52 Mostly Clear 27 -2.8 23 -5 85 85 N N/A 30.22 1023 10 16 N/A
8:52 am 08:52 Sunny 27 -2.8 25 -3.9 92 92 SSE 5 7 30.22 1024 10 16 N/A
9:52 am 09:52 Sunny 34 1.1 29 -1.7 82 82 S 7 11 30.21 1023 10 16 N/A
10:52 am 10:52 Sunny 37 2.8 26 -3.3 65 65 SSE 10 17 30.20 1023 10 16 N/A
11:52 am 11:52 Sunny 40 4.4 27 -2.8 60 60 SSE 8 13 30.16 1022 10 16 N/A
12:52 pm 12:52 Mostly Sunny 43 6.1 27 -2.8 53 53 S 8 13 30.12 1020 10 16 N/A
1:52 pm 13:52 Mostly Sunny 45 7.2 27 -2.8 49 49 SSE 10 17 30.07 1018 10 16 N/A
2:52 pm 14:52 Mostly Sunny 47 8.3 27 -2.8 46 46 SE 14 22 30.02 1017 10 16 N/A
3:52 pm 15:52 Mostly Sunny 47 8.3 28 -2.2 48 48 SSE 15 24 30.00 1016 10 16 N/A
4:52 pm 16:52 Partly Cloudy 45 7.2 27 -2.8 49 49 SSE 14 22 29.96 1015 10 16 N/A
5:52 pm 17:52 Partly Cloudy 43 6.1 28 -2.2 56 56 SE 13 20 29.93 1014 10 16 N/A
6:52 pm 18:52 Cloudy 44 6.7 28 -2.2 53 53 SSE 10 17 29.91 1013 10 16 N/A
7:52 pm 19:52 Cloudy 44 6.7 29 -1.7 55 55 SSE 8 13 29.88 1012 10 16 N/A
8:52 pm 20:52 Cloudy with Light Rain 44 6.7 32 undefined 63 63 S 13 20 29.86 1011 8 13 N/A
9:52 pm 21:52 Cloudy 41 5 36 2.2 82 82 SSW 8 13 29.84 1011 10 16 0.02 0.51
10:07 pm 22:07 Cloudy 42 5.6 36 2.2 79 79 SSW 6 9 29.85 1011 10 16 N/A
10:52 pm 22:52 Cloudy 42 5.6 37 2.8 82 82 SW 3 6 29.83 1010 10 16 N/A
11:52 pm 23:52 Cloudy 42 5.6 38 3.3 85 85 W 7 11 29.83 1010 10 16 N/A

Powered by AerisWeather